Weather History for Camarillo, CA

Change the Weather History Date:

Wednesday, October 3, 2012

  Actual Average Record
Temperature  
Mean Temperature 66 °F 65 °F  
Max Temperature 73 °F 75 °F 100 °F (1958)
Min Temperature 59 °F 55 °F 44 °F (1950)
Degree Days  
Heating Degree Days 0 2  
Month to date heating degree days 0 6  
Since 1 July heating degree days 35 38  
Cooling Degree Days 1 1  
Month to date cooling degree days 19 3  
Year to date cooling degree days 310 286  
Growing Degree Days 16 (Base 50)    
Moisture  
Dew Point 60 °F    
Average Humidity 81    
Maximum Humidity 93    
Minimum Humidity 68    
Precipitation  
Precipitation 0.00 in 0.01 in 0.10 in (1994)
Month to date precipitation 0.00 0.02  
Year to date precipitation 5.72 11.24  
Since 1 July precipitation 0.04 0.26  
Sea Level Pressure  
Sea Level Pressure 29.95 in    
Wind  
Wind Speed 4 mph (SW)    
Max Wind Speed 13 mph    
Max Gust Speed 17 mph    
Visibility 5 miles    
Events Fog    
T = Trace of Precipitation, MM = Missing Value Source: NWS Daily Summary

Daily Weather History Graph

Daily Weather History Graph

Search for Another Location

Airport:

Trip Planner

Search our weather history database for the weather conditions in past years. The results will help you decide how hot, cold, wet, or windy it might be!

Date:

Astronomy

Oct. 03, 2012 Rise Set
Actual Time 6:52 AM PDT 6:37 PM PDT
Civil Twilight 6:27 AM PDT 7:02 PM PDT
Nautical Twilight 5:58 AM PDT 7:31 PM PDT
Astronomical Twilight 5:29 AM PDT 8:00 PM PDT
Moon 8:43 PM PDT (10/3) 10:09 AM PDT (10/3)
Length of Visible Light 12h 34m
Length of Day
11h 44m
Waning Gibbous, 88% of the Moon is Illuminated
Oct 3
Waning Gibbous
Oct 8
Last Quarter
Oct 15
New
Oct 21
First Quarter
Oct 29
Full

Hourly Weather History & Observations

Time (PDT) Temp. Dew Point Humidity Pressure Visibility Wind Dir Wind Speed Gust Speed Precip Events Conditions
12:55 AM 64.0 °F 59.0 °F 84% 29.88 in 9.0 mi Calm Calm - N/A   Clear
1:55 AM 61.0 °F 57.0 °F 87% 29.89 in 8.0 mi Calm Calm - N/A   Clear
2:55 AM 62.1 °F 59.0 °F 90% 29.90 in 7.0 mi Calm Calm - N/A   Clear
3:07 AM 62.6 °F 60.8 °F 94% 29.88 in 4.0 mi Calm Calm - N/A   Scattered Clouds
3:09 AM 62.6 °F 60.8 °F 94% 29.88 in 1.8 mi Calm Calm - N/A   Mostly Cloudy
3:11 AM 60.8 °F 60.8 °F 100% 29.88 in 0.8 mi Calm Calm - N/A   Mist
3:39 AM 60.8 °F 57.2 °F 88% 29.88 in 1.8 mi Calm Calm - N/A   Overcast
3:46 AM 60.8 °F 57.2 °F 88% 29.88 in 3.0 mi Calm Calm - N/A   Mostly Cloudy
3:55 AM 59.0 °F 55.9 °F 90% 29.91 in 8.0 mi Calm Calm - N/A   Scattered Clouds
4:55 AM 60.1 °F 57.0 °F 90% 29.92 in 1.2 mi Calm Calm - N/A   Scattered Clouds
4:57 AM 59.0 °F 57.2 °F 94% 29.89 in 0.8 mi SW 3.5 mph - N/A   Mist
5:13 AM 59.0 °F 57.2 °F 94% 29.90 in 0.8 mi Calm Calm - N/A   Mist
5:21 AM 59.0 °F 57.2 °F 94% 29.90 in 1.5 mi Calm Calm - N/A   Overcast
5:36 AM 60.8 °F 57.2 °F 88% 29.91 in 6.0 mi Calm Calm - N/A   Overcast
5:55 AM 60.1 °F 59.0 °F 96% 29.94 in 2.0 mi Calm Calm - N/A   Overcast
5:57 AM 60.8 °F 59.0 °F 94% 29.91 in 1.2 mi Calm Calm - N/A   Overcast
6:06 AM 60.8 °F 60.8 °F 100% 29.92 in 0.8 mi Calm Calm - N/A   Overcast
6:30 AM 60.8 °F 60.8 °F 100% 29.92 in 1.8 mi Calm Calm - N/A   Overcast
6:37 AM 60.8 °F 59.0 °F 94% 29.92 in 2.5 mi Calm Calm - N/A   Overcast
6:46 AM 60.8 °F 60.8 °F 100% 29.93 in 1.5 mi Calm Calm - N/A   Overcast
6:55 AM 61.0 °F 60.1 °F 97% 29.96 in 1.0 mi NE 3.5 mph - N/A   Overcast
7:53 AM 60.8 °F 60.8 °F 100% 29.94 in 0.2 mi NE 4.6 mph - N/A Fog Fog
7:55 AM 61.0 °F 60.1 °F 97% 29.97 in 0.2 mi NE 4.6 mph - N/A Fog Fog
8:27 AM 60.8 °F 60.8 °F 100% 29.95 in 2.0 mi Calm Calm - N/A   Overcast
8:47 AM 62.6 °F 60.8 °F 94% 29.95 in 2.0 mi SW 4.6 mph - N/A   Mostly Cloudy
8:55 AM 63.0 °F 60.1 °F 90% 29.98 in 4.0 mi Calm Calm - N/A   Scattered Clouds
9:55 AM 66.0 °F 61.0 °F 84% 29.99 in 6.0 mi SSW 3.5 mph - N/A   Haze
10:55 AM 71.1 °F 62.1 °F 73% 29.99 in 6.0 mi SW 6.9 mph - N/A   Haze
11:55 AM 68.0 °F 61.0 °F 78% 30.00 in 6.0 mi South 8.1 mph - N/A   Haze
12:55 PM 70.0 °F 61.0 °F 73% 29.99 in 7.0 mi SW 10.4 mph 17.3 mph N/A   Clear
1:43 PM 69.8 °F 60.8 °F 73% 29.96 in 8.0 mi SW 9.2 mph - N/A   Mostly Cloudy
1:53 PM 69.8 °F 60.8 °F 73% 29.96 in 8.0 mi WSW 10.4 mph - N/A   Scattered Clouds
1:55 PM 69.1 °F 61.0 °F 75% 29.99 in 8.0 mi SW 8.1 mph - N/A   Scattered Clouds
2:55 PM 71.1 °F 62.1 °F 73% 29.98 in 8.0 mi SW 8.1 mph - N/A   Clear
3:55 PM 72.0 °F 61.0 °F 68% 29.98 in 9.0 mi SW 8.1 mph - N/A   Clear
4:55 PM 70.0 °F 60.1 °F 71% 29.99 in 9.0 mi SW 6.9 mph - N/A   Clear
5:55 PM 66.9 °F 60.1 °F 79% 29.99 in 10.0 mi SW 6.9 mph - N/A   Clear
6:55 PM 64.0 °F 60.1 °F 87% 29.99 in 8.0 mi WSW 3.5 mph - N/A   Scattered Clouds
7:10 PM 64.4 °F 60.8 °F 88% 29.98 in 9.0 mi WSW 4.6 mph - N/A   Mostly Cloudy
7:55 PM 64.0 °F 59.0 °F 84% 30.01 in 9.0 mi West 3.5 mph - N/A   Overcast
8:55 PM 64.0 °F 59.0 °F 84% 30.03 in 10.0 mi WSW 3.5 mph - N/A   Overcast
9:55 PM 64.0 °F 57.9 °F 80% 30.04 in 10.0 mi Calm Calm - N/A   Mostly Cloudy
10:55 PM 64.0 °F 57.9 °F 80% 30.05 in 10.0 mi West 4.6 mph - N/A   Overcast
11:55 PM 64.0 °F 57.9 °F 80% 30.05 in 10.0 mi Calm Calm - N/A   Overcast